Weather History for Waukegan, IL

Change the Weather History Date:

Thursday, February 7, 2013

  Actual Average Record
Temperature  
Mean Temperature 31 °F -  
Max Temperature 33 °F 31 °F 55 °F (2009)
Min Temperature 29 °F 16 °F -8 °F (2014)
Degree Days  
Heating Degree Days 34 41  
Month to date heating degree days 337 293  
Since 1 July heating degree days 3797 4144  
Cooling Degree Days 0 0  
Month to date cooling degree days 0 0  
Year to date cooling degree days 0 0  
Moisture  
Dew Point 31 °F    
Average Humidity 91    
Maximum Humidity 100    
Minimum Humidity 82    
Precipitation  
Precipitation 0.10 in 0.06 in 0.16 in (2005)
Month to date precipitation 0.02 0.37  
Year to date precipitation 1.30 1.76  
Sea Level Pressure  
Sea Level Pressure 29.98 in    
Wind  
Wind Speed 7 mph (ESE)    
Max Wind Speed 17 mph    
Max Gust Speed 28 mph    
Visibility 2 miles    
Events Fog , Rain , Snow    
T = Trace of Precipitation, MM = Missing Value Source: NWS Daily Summary

Daily Weather History Graph

Daily Weather History Graph

Search for Another Location

Airport:

Trip Planner

Search our weather history database for the weather conditions in past years. The results will help you decide how hot, cold, wet, or windy it might be!

Date:

Astronomy

Feb. 07, 2013 Rise Set
Actual Time 6:58 AM CST 5:13 PM CST
Civil Twilight 6:28 AM CST 5:43 PM CST
Nautical Twilight 5:55 AM CST 6:16 PM CST
Astronomical Twilight 5:22 AM CST 6:49 PM CST
Moon 4:39 AM CST (2/7) 2:36 PM CST (2/7)
Length of Visible Light 11h 14m
Length of Day
10h 15m
Waning Crescent, 9% of the Moon is Illuminated
Feb 7
Waning Crescent
Feb 10
New
Feb 17
First Quarter
Feb 25
Full
Mar 4
Last Quarter

Hourly Weather History & Observations

Time (CST) Temp. Windchill Dew Point Humidity Pressure Visibility Wind Dir Wind Speed Gust Speed Precip Events Conditions
12:52 AM 32.0 °F 28.7 °F 28.9 °F 88% 30.13 in 4.0 mi SE 3.5 mph - N/A   Overcast
1:52 AM 33.1 °F 25.5 °F 28.0 °F 82% 30.13 in 4.0 mi SSE 9.2 mph - N/A   Haze
2:52 AM 32.0 °F 24.2 °F 28.0 °F 85% 30.11 in 4.0 mi SE 9.2 mph - N/A   Mostly Cloudy
3:52 AM 32.0 °F 24.8 °F 28.0 °F 85% 30.10 in 4.0 mi SE 8.1 mph - N/A   Overcast
4:30 AM 32.0 °F 23.0 °F 28.4 °F 87% 30.06 in 4.0 mi SE 11.5 mph - 0.00 in   Overcast
4:52 AM 32.0 °F 24.2 °F 28.9 °F 88% 30.09 in 4.0 mi SE 9.2 mph - 0.00 in   Overcast
5:28 AM 32.0 °F 24.2 °F 28.4 °F 87% 30.05 in 3.0 mi SE 9.2 mph - 0.00 in   Overcast
5:43 AM 30.2 °F 20.8 °F 30.2 °F 100% 30.05 in 3.0 mi SE 11.5 mph - 0.00 in Rain Light Freezing Rain
5:52 AM 30.9 °F 21.7 °F 28.9 °F 92% 30.09 in 2.5 mi SE 11.5 mph - 0.00 in Rain Light Freezing Rain
6:52 AM 32.0 °F 24.8 °F 30.0 °F 92% 30.08 in 2.0 mi SSE 8.1 mph - 0.03 in Rain Light Freezing Rain
7:26 AM 32.0 °F 24.8 °F 30.2 °F 93% 30.03 in 1.2 mi SE 8.1 mph - 0.01 in Rain Light Freezing Rain
7:35 AM 32.0 °F 25.6 °F 30.2 °F 93% 30.04 in 1.2 mi SE 6.9 mph - 0.01 in Rain Light Freezing Rain
7:52 AM 32.0 °F 23.6 °F 30.9 °F 96% 30.07 in 1.2 mi SE 10.4 mph - 0.02 in Rain Light Freezing Rain
8:35 AM 32.0 °F 24.8 °F 30.2 °F 93% 30.02 in 1.2 mi SE 8.1 mph - 0.00 in   Overcast
9:52 AM 32.0 °F 26.4 °F 30.9 °F 96% 30.04 in 1.8 mi SE 5.8 mph - 0.01 in   Overcast
10:10 AM 32.0 °F 26.4 °F 30.2 °F 93% 30.00 in 2.0 mi SSE 5.8 mph - 0.01 in Snow Light Snow
10:22 AM 32.0 °F 24.2 °F 30.2 °F 93% 30.01 in 1.2 mi SSE 9.2 mph - 0.01 in Snow Light Snow
10:29 AM 32.0 °F 24.8 °F 30.2 °F 93% 30.01 in 0.8 mi SSE 8.1 mph - 0.01 in Snow Light Snow
10:42 AM 32.0 °F 26.4 °F 30.2 °F 93% 30.00 in 0.5 mi SE 5.8 mph - 0.01 in Fog , Snow Light Snow
10:52 AM 32.0 °F 26.4 °F 30.9 °F 96% 30.04 in 0.8 mi SE 5.8 mph - 0.01 in Snow Light Snow
11:10 AM 32.0 °F 24.8 °F 30.2 °F 93% 30.00 in 0.5 mi SE 8.1 mph - 0.01 in Fog , Snow Light Snow
11:34 AM 32.0 °F 24.2 °F 30.2 °F 93% 29.99 in 0.2 mi SE 9.2 mph - 0.01 in Fog , Snow Light Snow
11:52 AM 32.0 °F 24.8 °F 30.9 °F 96% 30.01 in 0.5 mi SE 8.1 mph - 0.01 in Fog , Snow Light Snow
12:04 PM 32.0 °F 23.6 °F 32.0 °F 100% 29.97 in 0.2 mi SE 10.4 mph - 0.00 in Fog , Snow Snow
12:52 PM 32.0 °F 24.8 °F 32.0 °F 100% 29.98 in 0.2 mi ESE 8.1 mph - 0.00 in Fog , Snow Heavy Snow
1:18 PM 32.0 °F 24.8 °F 32.0 °F 100% 29.93 in 0.5 mi SE 8.1 mph - 0.00 in Fog , Snow Snow
1:52 PM 32.0 °F 26.4 °F 32.0 °F 100% 29.95 in 0.2 mi SE 5.8 mph - 0.01 in Fog , Snow Snow
2:52 PM 32.0 °F 26.4 °F 32.0 °F 100% 29.92 in 0.2 mi East 5.8 mph - 0.00 in Fog , Snow Heavy Snow
3:52 PM 32.0 °F 27.5 °F 32.0 °F 100% 29.91 in 0.2 mi ESE 4.6 mph - 0.00 in Fog , Snow Snow
3:59 PM 32.0 °F 28.7 °F 32.0 °F 100% 29.87 in 0.2 mi ESE 3.5 mph - 0.00 in Fog , Snow Snow
4:52 PM 32.0 °F - 32.0 °F 100% 29.91 in 0.2 mi Calm Calm - 0.00 in Fog , Snow Snow
5:25 PM 32.0 °F - 32.0 °F 100% 29.87 in 0.5 mi Calm Calm - 0.01 in Fog , Snow Snow
5:52 PM 32.0 °F 28.7 °F 32.0 °F 100% 29.91 in 0.8 mi North 3.5 mph - 0.01 in Snow Light Snow
6:39 PM 32.0 °F 27.5 °F 32.0 °F 100% 29.88 in 1.0 mi North 4.6 mph - 0.00 in Snow Light Snow
6:52 PM 32.0 °F 28.7 °F 32.0 °F 100% 29.91 in 1.0 mi North 3.5 mph - 0.00 in Snow Light Snow
7:17 PM 32.0 °F 26.4 °F 32.0 °F 100% 29.88 in 1.2 mi North 5.8 mph - 0.00 in Snow Light Snow
7:44 PM 32.0 °F 27.5 °F 32.0 °F 100% 29.89 in 0.8 mi NNW 4.6 mph - 0.00 in Snow Light Snow
7:52 PM 32.0 °F 26.4 °F 32.0 °F 100% 29.92 in 1.0 mi North 5.8 mph - 0.00 in Snow Light Snow
8:36 PM 33.8 °F 28.6 °F 32.0 °F 93% 29.87 in 2.0 mi North 5.8 mph - 0.00 in Snow Light Snow
8:52 PM 33.1 °F 26.9 °F 32.0 °F 96% 29.92 in 2.5 mi NNW 6.9 mph - 0.00 in Snow Light Snow
9:11 PM 33.8 °F 27.0 °F 32.0 °F 93% 29.89 in 1.5 mi NNW 8.1 mph - 0.00 in Snow Light Snow
9:35 PM 33.8 °F 27.7 °F 32.0 °F 93% 29.89 in 2.0 mi NNW 6.9 mph - 0.00 in Snow Light Snow
9:44 PM 33.8 °F 27.0 °F 32.0 °F 93% 29.90 in 1.5 mi NNW 8.1 mph - 0.00 in Snow Light Snow
9:52 PM 33.1 °F 25.5 °F 32.0 °F 96% 29.94 in 1.8 mi NNW 9.2 mph - 0.00 in Snow Light Snow
10:01 PM 33.8 °F 26.4 °F 30.2 °F 87% 29.90 in 1.8 mi NNW 9.2 mph 17.3 mph 0.00 in Snow Light Snow
10:08 PM 33.8 °F 27.0 °F 32.0 °F 93% 29.90 in 2.0 mi NNW 8.1 mph 17.3 mph 0.00 in Snow Light Snow
10:18 PM 33.8 °F 25.3 °F 32.0 °F 93% 29.91 in 1.8 mi NNW 11.5 mph 18.4 mph 0.00 in Snow Light Snow
10:52 PM 33.1 °F 24.4 °F 30.9 °F 92% 29.95 in 1.5 mi NNW 11.5 mph 21.9 mph 0.00 in Snow Light Snow
11:52 PM 28.9 °F 19.2 °F 28.0 °F 96% 29.99 in 1.0 mi NNW 11.5 mph 23.0 mph 0.00 in Snow Light Snow